Time,TemperatureF,DewpointF,PressureIn,WindDirection,WindDirectionDegrees,WindSpeedMPH,WindSpeedGustMPH,Humidity,HourlyPrecipIn,Conditions,Clouds,dailyrainin,SolarRadiationWatts/m^2,SoftwareType,DateUTC
2013-02-24 00:11:00,23.0,18.0,-100.00,SW,233,3.0,4.0,82,-99.99,,,0.00,0.000000,,2013-02-24 05:11:00,
2013-02-24 01:11:00,21.0,18.0,-100.00,SSW,208,3.0,4.0,86,-99.99,,,0.00,0.000000,,2013-02-24 06:11:00,
2013-02-24 02:12:00,22.0,17.0,-100.00,ESE,105,2.0,4.0,82,-99.99,,,0.00,0.000000,,2013-02-24 07:12:00,
2013-02-24 03:11:00,19.0,15.0,-100.00,NNE,15,1.0,6.0,84,-99.99,,,0.00,0.000000,,2013-02-24 08:11:00,
2013-02-24 04:11:00,12.0,9.0,-100.00,ESE,110,4.0,7.0,86,-99.99,,,0.00,0.000000,,2013-02-24 09:11:00,
2013-02-24 05:11:00,13.0,8.0,-100.00,East,101,2.0,4.0,80,-99.99,,,0.00,0.000000,,2013-02-24 10:11:00,
2013-02-24 06:11:00,8.0,5.0,-100.00,SSW,213,0.0,2.0,85,-99.99,,,0.00,0.000000,,2013-02-24 11:11:00,
2013-02-24 07:11:00,5.0,1.0,-100.00,SE,146,5.0,6.0,84,-99.99,,,0.00,0.000000,,2013-02-24 12:11:00,
2013-02-24 07:15:00,4.0,0.0,-100.00,ESE,123,3.0,5.0,83,-99.99,,,0.00,0.000000,,2013-02-24 12:15:00,
2013-02-24 10:12:00,1.0,-3.0,-100.00,SE,136,5.0,7.0,80,-99.99,,,0.00,2.790000,,2013-02-24 15:12:00,
2013-02-24 11:11:00,4.0,-1.0,-100.00,SSE,160,2.0,5.0,76,-99.99,,,0.00,194.779999,,2013-02-24 16:11:00,
2013-02-24 12:11:00,14.0,7.0,-100.00,South,172,2.0,4.0,72,-99.99,,,0.00,361.910004,,2013-02-24 17:11:00,
2013-02-24 13:11:00,18.0,10.0,-100.00,SE,140,2.0,4.0,71,-99.99,,,0.00,535.190002,,2013-02-24 18:11:00,
2013-02-24 15:11:00,23.0,17.0,-100.00,SSW,210,8.0,10.0,75,-99.99,,,-99.99,730.090027,,2013-02-24 20:11:00,
2013-02-24 16:11:00,26.0,17.0,-100.00,SSW,196,8.0,10.0,66,-99.99,,,-99.99,735.789978,,2013-02-24 21:11:00,
2013-02-24 17:11:00,27.0,16.0,-100.00,SW,218,9.0,12.0,62,-99.99,,,-99.99,676.049988,,2013-02-24 22:11:00,
2013-02-24 18:11:00,28.0,20.0,-100.00,West,262,11.0,14.0,71,-99.99,,,-99.99,555.070007,,2013-02-24 23:11:00,
2013-02-24 19:11:00,28.0,20.0,-100.00,WSW,247,11.0,14.0,72,-99.99,,,-99.99,389.100006,,2013-02-25 00:11:00,
2013-02-24 20:11:00,25.0,19.0,-100.00,WSW,255,6.0,9.0,77,-99.99,,,-99.99,194.440002,,2013-02-25 01:11:00,
2013-02-24 21:11:00,22.0,18.0,-100.00,SSE,159,4.0,5.0,83,-99.99,,,-99.99,8.020000,,2013-02-25 02:11:00,
2013-02-24 22:11:00,16.0,14.0,-100.00,SE,133,4.0,5.0,89,-99.99,,,-99.99,0.000000,,2013-02-25 03:11:00,
2013-02-24 23:11:00,16.0,13.0,-100.00,SE,125,4.0,5.0,86,-99.99,,,-99.99,0.000000,,2013-02-25 04:11:00,